EW5720 Weather Reports


Display with metric or nautical units.
time (UTC)temp
F
wind
direction
speed
MPH
gust
MPH
rain 1hr
in
rain 24hr
in
rain mn
in
humidity
%
barometer
mb
20260906141054 68 147 13.0 20.0 0.00 0.00 0.00 93 1019.5
20260906140556 68 151 14.0 21.0 0.00 0.00 0.00 93 1019.4
20260906140107 67 144 14.0 23.0 0.00 0.00 0.00 93 1019.4
20260906135555 68 142 15.0 23.0 0.00 0.00 0.00 93 1019.4
20260906135056 68 147 12.0 18.0 0.00 0.00 0.00 93 1019.5
20260906134604 67 159 10.0 20.0 0.00 0.00 0.00 93 1019.6
20260906134056 67 153 11.0 20.0 0.00 0.00 0.00 93 1019.6
20260906133554 67 153 13.0 19.0 0.00 0.00 0.00 93 1019.6
20260906133109 68 146 13.0 17.0 0.00 0.00 0.00 93 1019.6
20260906132554 68 148 10.0 15.0 0.00 0.00 0.00 93 1019.4
20260906132056 68 155 8.0 14.0 0.00 0.00 0.00 93 1019.4
20260906131610 68 146 7.0 15.0 0.00 0.00 0.00 93 1019.4
20260906131053 68 146 9.0 17.0 0.00 0.00 0.00 94 1019.3
20260906130553 67 147 11.0 17.0 0.00 0.00 0.00 94 1019.2
20260906130106 68 146 9.0 17.0 0.00 0.00 0.00 94 1019.2
20260906125553 67 159 10.0 18.0 0.00 0.00 0.00 94 1019.1
20260906125053 67 151 9.0 19.0 0.00 0.00 0.00 94 1019.1
20260906124605 67 158 14.0 19.0 0.00 0.00 0.00 94 1018.8
20260906124053 67 154 14.0 19.0 0.00 0.00 0.00 94 1018.7
20260906123554 67 160 12.0 18.0 0.00 0.00 0.00 93 1018.6
20260906123111 67 156 11.0 18.0 0.00 0.00 0.00 93 1018.5
20260906122553 67 153 11.0 17.0 0.00 0.00 0.00 94 1018.4
20260906122056 67 144 11.0 17.0 0.00 0.00 0.00 93 1018.3
20260906121602 67 144 10.0 17.0 0.00 0.00 0.00 93 1018.2
20260906121053 67 140 8.0 15.0 0.00 0.00 0.00 93 1018.1
20260906120556 67 146 9.0 14.0 0.00 0.00 0.00 93 1018.1
20260906120126 67 147 8.0 14.0 0.00 0.00 0.00 93 1018.0
20260906115553 67 141 8.0 14.0 0.00 0.00 0.00 93 1018.0
20260906115055 67 139 9.0 14.0 0.00 0.00 0.00 93 1018.0
20260906114609 67 153 9.0 14.0 0.00 0.00 0.00 93 1018.0
20260906114053 67 150 9.0 14.0 0.00 0.00 0.00 93 1018.0
20260906113553 67 139 9.0 13.0 0.00 0.00 0.00 93 1018.0
20260906113104 67 153 7.0 13.0 0.00 0.00 0.00 93 1018.1
20260906112553 67 150 9.0 12.0 0.00 0.00 0.00 93 1018.1
20260906112052 66 139 8.0 12.0 0.00 0.00 0.00 93 1018.1
20260906111604 66 151 8.0 12.0 0.00 0.00 0.00 93 1018.1
20260906111057 66 142 9.0 12.0 0.00 0.00 0.00 93 1018.1
20260906110553 66 152 7.0 12.0 0.00 0.00 0.00 93 1018.1
20260906110111 66 143 7.0 12.0 0.00 0.00 0.00 93 1018.2
20260906105553 66 147 8.0 12.0 0.00 0.00 0.00 93 1018.1
20260906105054 66 148 7.0 10.0 0.00 0.00 0.00 93 1018.2
20260906104606 66 150 7.0 11.0 0.00 0.00 0.00 93 1018.2
20260906104053 66 150 7.0 12.0 0.00 0.00 0.00 93 1018.2
20260906103553 67 142 8.0 12.0 0.00 0.00 0.00 93 1018.2
20260906103104 67 146 6.0 12.0 0.00 0.00 0.00 93 1018.2
20260906102554 67 144 7.0 12.0 0.00 0.00 0.00 93 1018.2
20260906102054 67 144 8.0 12.0 0.00 0.00 0.00 93 1018.0
20260906101604 67 152 8.0 12.0 0.00 0.00 0.00 93 1017.8
20260906101054 67 148 8.0 12.0 0.00 0.00 0.00 93 1017.7
20260906100554 67 137 7.0 12.0 0.00 0.00 0.00 93 1017.5
20260906100110 66 144 9.0 12.0 0.00 0.00 0.00 93 1017.6
20260906095554 66 160 8.0 12.0 0.00 0.00 0.00 93 1017.5
20260906095057 66 145 8.0 11.0 0.00 0.00 0.00 92 1017.6
20260906094606 66 149 7.0 11.0 0.00 0.00 0.00 92 1017.6
20260906094054 66 146 8.0 11.0 0.00 0.00 0.00 92 1017.6
20260906093555 66 144 8.0 10.0 0.00 0.00 0.00 92 1017.6
20260906093118 66 150 7.0 10.0 0.00 0.00 0.00 92 1017.7
20260906092554 66 139 7.0 11.0 0.00 0.00 0.00 92 1017.6
20260906092055 66 148 6.0 11.0 0.00 0.00 0.00 92 1017.5
20260906091606 66 148 7.0 10.0 0.00 0.00 0.00 92 1017.6
20260906091059 66 150 7.0 10.0 0.00 0.00 0.00 92 1017.5
20260906090554 66 146 6.0 9.0 0.00 0.00 0.00 92 1017.5
20260906090137 66 119 5.0 9.0 0.00 0.00 0.00 92 1017.4
20260906085554 66 135 5.0 9.0 0.00 0.00 0.00 92 1017.3
20260906085054 67 140 5.0 8.0 0.00 0.00 0.00 92 1017.3
20260906084605 67 134 4.0 8.0 0.00 0.00 0.00 92 1017.3
20260906084053 67 150 3.0 8.0 0.00 0.00 0.00 92 1017.2
20260906083554 67 142 2.0 7.0 0.00 0.00 0.00 92 1017.2
20260906083100 67 151 2.0 8.0 0.00 0.00 0.00 92 1017.2
20260906082554 67 153 4.0 8.0 0.00 0.00 0.00 92 1017.2
20260906082053 67 152 4.0 8.0 0.00 0.00 0.00 92 1017.1
20260906081601 67 149 3.0 7.0 0.00 0.00 0.00 92 1017.2
20260906081056 67 148 4.0 7.0 0.00 0.00 0.00 92 1017.2
20260906080554 68 147 3.0 7.0 0.00 0.00 0.00 92 1017.2
20260906080105 68 142 2.0 8.0 0.00 0.00 0.00 92 1017.3
20260906075555 68 148 3.0 8.0 0.00 0.00 0.00 92 1017.2
20260906075055 68 144 3.0 8.0 0.00 0.00 0.00 92 1017.2
20260906074604 68 142 2.0 9.0 0.00 0.00 0.00 92 1017.1
20260906074053 68 360 2.0 9.0 0.00 0.00 0.00 92 1017.2
20260906073554 68 134 4.0 9.0 0.00 0.00 0.00 91 1017.2
20260906073100 68 146 3.0 7.0 0.00 0.00 0.00 91 1017.4
20260906072553 69 154 2.0 5.0 0.00 0.00 0.00 92 1017.5
20260906072054 69 134 1.0 7.0 0.00 0.00 0.00 92 1017.5
20260906071610 69 0 0.0 8.0 0.00 0.00 0.00 91 1017.5
20260906071052 69 137 3.0 8.0 0.00 0.00 0.00 91 1017.6
20260906070553 69 123 2.0 8.0 0.00 0.00 0.00 91 1017.5
20260906070105 69 111 2.0 8.0 0.00 0.00 0.00 91 1017.5
20260906065553 69 144 2.0 8.0 0.00 0.00 0.00 91 1017.6
20260906065053 69 123 1.0 7.0 0.00 0.00 0.00 91 1017.7
20260906064604 69 0 1.0 8.0 0.00 0.00 0.00 91 1017.8
20260906064053 69 144 4.0 8.0 0.00 0.00 0.00 91 1017.7
20260906063553 69 142 4.0 10.0 0.00 0.00 0.00 91 1017.8
20260906063103 70 148 5.0 10.0 0.00 0.00 0.00 91 1017.6
20260906062552 70 153 6.0 10.0 0.00 0.00 0.00 91 1017.6
20260906062057 70 140 2.0 7.0 0.00 0.00 0.00 91 1017.7
20260906061604 70 146 3.0 8.0 0.00 0.00 0.00 91 1017.6
20260906061054 70 140 3.0 9.0 0.00 0.00 0.00 91 1017.6
20260906060553 70 140 3.0 9.0 0.00 0.00 0.00 91 1017.6
20260906060109 70 109 4.0 9.0 0.00 0.00 0.00 91 1017.6
20260906055553 71 0 2.0 9.0 0.00 0.00 0.00 91 1017.7
20260906055054 71 130 2.0 7.0 0.00 0.00 0.00 91 1017.9
20260906054603 71 131 2.0 8.0 0.00 0.00 0.00 91 1017.8
20260906054053 71 132 1.0 11.0 0.00 0.00 0.00 91 1017.9
20260906053552 71 138 2.0 11.0 0.00 0.00 0.00 91 1017.8
20260906053101 71 134 3.0 9.0 0.00 0.00 0.00 91 1017.8
20260906052552 71 111 3.0 11.0 0.00 0.00 0.00 91 1017.8
20260906052053 71 127 3.0 11.0 0.00 0.00 0.00 91 1017.6
20260906051606 71 141 2.0 11.0 0.00 0.00 0.00 91 1017.6
20260906051052 71 120 3.0 11.0 0.00 0.00 0.00 91 1017.7
20260906050552 72 119 3.0 11.0 0.00 0.00 0.00 91 1017.6
20260906050132 72 91 2.0 9.0 0.00 0.00 0.00 91 1017.5
20260906045553 72 121 2.0 7.0 0.00 0.00 0.00 91 1017.6
20260906045053 72 0 1.0 8.0 0.00 0.00 0.00 91 1017.5
20260906044602 72 0 0.0 8.0 0.00 0.00 0.00 91 1017.5
20260906044053 72 103 2.0 8.0 0.00 0.00 0.00 91 1017.5
20260906043552 72 113 2.0 8.0 0.00 0.00 0.00 91 1017.5
20260906043109 72 128 2.0 7.0 0.00 0.00 0.00 91 1017.4
20260906042552 72 128 1.0 7.0 0.00 0.00 0.00 90 1017.4
20260906042058 72 123 0.0 9.0 0.00 0.00 0.00 90 1017.6
20260906041606 72 0 0.0 9.0 0.00 0.00 0.00 90 1017.5
20260906041053 72 76 3.0 9.0 0.00 0.00 0.00 90 1017.5
20260906040554 72 91 4.0 8.0 0.00 0.00 0.00 90 1017.5
20260906040114 73 98 3.0 8.0 0.00 0.00 0.00 90 1017.4
20260906035555 73 95 4.0 8.0 0.00 0.00 0.00 90 1017.4
20260906035054 73 105 2.0 6.0 0.00 0.00 0.00 90 1017.5
20260906034606 73 0 1.0 7.0 0.00 0.00 0.00 90 1017.4
20260906034056 73 129 1.0 7.0 0.00 0.00 0.00 90 1017.4
20260906033553 73 0 0.0 7.0 0.00 0.00 0.00 90 1017.5
20260906033106 73 129 0.0 7.0 0.00 0.00 0.00 90 1017.4
20260906032550 73 134 2.0 7.0 0.00 0.00 0.00 90 1017.4
20260906032050 73 114 2.0 4.0 0.00 0.00 0.00 90 1017.4
20260906031907 73 0 0.0 1.0 0.00 0.00 0.00 90 1017.4
20260906031055 73 0 0.0 0.0 0.00 0.00 0.00 90 1017.4
20260906030555 73 0 0.0 0.0 0.00 0.00 0.00 90 1017.4
20260906030135 73 0 0.0 0.0 0.00 0.00 0.00 90 1017.4
20260906025555 73 0 0.0 0.0 0.00 0.00 0.00 90 1017.4
20260906025054 73 0 0.0 0.0 0.00 0.00 0.00 90 1017.3
20260906024611 73 0 0.0 0.0 0.00 0.00 0.00 90 1017.3
20260906023555 73 0 0.0 4.0 0.00 0.00 0.00 90 1017.2
20260906023126 73 0 0.0 6.0 0.00 0.00 0.00 90 1017.2
20260906022554 73 88 1.0 7.0 0.00 0.00 0.00 90 1017.1
20260906022057 74 103 3.0 7.0 0.00 0.00 0.00 89 1017.1
20260906021613 74 98 3.0 6.0 0.00 0.00 0.00 89 1017.1
20260906021053 74 102 2.0 6.0 0.00 0.00 0.00 89 1017.1
20260906020553 74 0 0.0 4.0 0.00 0.00 0.00 89 1017.0
20260906020107 74 115 1.0 4.0 0.00 0.00 0.00 89 1016.9
20260906015642 74 115 2.0 4.0 0.00 0.00 0.00 89 1016.9
20260906015053 74 115 1.0 6.0 0.00 0.00 0.00 89 1016.8
20260906014630 74 0 1.0 6.0 0.00 0.00 0.00 89 1016.6
20260906014055 74 113 2.0 4.0 0.00 0.00 0.00 89 1016.6
20260906013554 74 117 2.0 4.0 0.00 0.00 0.00 89 1016.5
20260906013103 74 120 2.0 4.0 0.00 0.00 0.00 88 1016.5
20260906012928 74 121 1.0 3.0 0.00 0.00 0.00 88 1016.4
20260905220107 76 96 2.0 7.0 0.00 0.00 0.00 85 1015.3
20260905215554 76 0 1.0 8.0 0.00 0.00 0.00 84 1015.2
20260905215054 76 76 2.0 11.0 0.00 0.00 0.00 84 1015.4
20260905214610 76 132 1.0 11.0 0.00 0.00 0.00 84 1015.3
20260905214054 76 112 3.0 10.0 0.00 0.00 0.00 85 1015.4
20260905213554 76 130 1.0 12.0 0.00 0.00 0.00 84 1015.5
20260905213114 76 103 2.0 12.0 0.00 0.00 0.00 84 1015.5
20260905212554 76 0 3.0 11.0 0.00 0.00 0.00 84 1015.4
20260905212053 76 100 4.0 11.0 0.00 0.00 0.00 83 1015.6
20260905211604 76 122 4.0 10.0 0.00 0.00 0.00 83 1015.5
20260905211053 76 129 4.0 11.0 0.00 0.00 0.00 83 1015.5
20260905210549 77 113 3.0 12.0 0.00 0.00 0.00 83 1015.7
20260905210109 77 146 3.0 12.0 0.00 0.00 0.00 83 1015.6
20260905205555 77 100 3.0 11.0 0.00 0.00 0.00 83 1015.6
20260905205058 77 115 4.0 12.0 0.00 0.00 0.00 84 1015.6
20260905204603 77 123 2.0 12.0 0.00 0.00 0.00 84 1015.7
20260905204053 77 132 5.0 12.0 0.00 0.00 0.00 84 1015.6
20260905203557 77 106 4.0 11.0 0.00 0.00 0.00 85 1015.6
20260905203108 78 149 7.0 11.0 0.00 0.00 0.00 84 1015.6
20260905202551 78 153 5.0 10.0 0.00 0.00 0.00 84 1015.7
20260905202053 78 144 4.0 10.0 0.00 0.00 0.00 84 1015.6
20260905201608 78 144 4.0 10.0 0.00 0.00 0.00 84 1015.6
20260905201053 78 142 5.0 18.0 0.00 0.00 0.00 84 1015.6
20260905200550 78 136 5.0 18.0 0.00 0.00 0.00 84 1015.4
20260905195549 79 108 6.0 14.0 0.00 0.00 0.00 84 1015.4
20260905195053 78 111 3.0 14.0 0.00 0.00 0.00 83 1015.9
20260905194608 79 136 4.0 14.0 0.00 0.00 0.00 84 1015.7
20260905194054 79 100 6.0 17.0 0.00 0.00 0.00 83 1015.5
20260905193551 79 99 4.0 23.0 0.00 0.00 0.00 85 1015.4
20260905193106 78 91 8.0 23.0 0.00 0.00 0.00 85 1015.3
20260905192550 78 106 9.0 23.0 0.00 0.00 0.00 85 1015.0
20260905192057 78 80 5.0 19.0 0.00 0.00 0.00 85 1014.9
20260905191615 78 90 8.0 19.0 0.00 0.00 0.00 86 1015.3
20260905191054 78 87 9.0 18.0 0.00 0.00 0.00 87 1015.1
20260905190556 78 81 10.0 20.0 0.00 0.00 0.00 87 1015.1
20260905190105 78 73 13.0 20.0 0.00 0.00 0.00 87 1015.0
20260905185556 78 97 13.0 20.0 0.00 0.00 0.00 87 1015.2
20260905185055 78 360 9.0 15.0 0.00 0.00 0.00 87 1015.8
20260905184618 78 101 7.0 14.0 0.00 0.00 0.00 88 1016.3
20260905184053 78 94 7.0 14.0 0.00 0.00 0.00 87 1016.4
20260905183554 78 126 4.0 12.0 0.00 0.00 0.00 89 1016.8
20260905183103 77 92 4.0 10.0 0.00 0.00 0.00 89 1017.1
20260905182557 77 87 2.0 10.0 0.00 0.00 0.00 89 1017.2
20260905182053 76 74 2.0 10.0 0.00 0.00 0.00 90 1017.4
20260905181606 76 69 5.0 10.0 0.00 0.00 0.00 90 1017.4
20260905181050 76 56 4.0 11.0 0.00 0.00 0.00 90 1017.5
20260905180550 76 360 6.0 11.0 0.00 0.00 0.00 91 1017.5
20260905180108 76 28 4.0 9.0 0.00 0.00 0.00 91 1017.5
20260905175554 76 52 4.0 10.0 0.00 0.00 0.00 92 1017.5
20260905175053 76 360 5.0 10.0 0.00 0.00 0.00 92 1017.4
20260905174614 76 46 2.0 11.0 0.00 0.00 0.00 93 1017.5
20260905174054 76 42 5.0 11.0 0.00 0.00 0.00 93 1017.5
20260905173550 75 47 7.0 10.0 0.00 0.00 0.00 93 1017.5
20260905173111 75 20 3.0 6.0 0.00 0.00 0.00 93 1017.8
20260905172554 74 360 3.0 6.0 0.00 0.00 0.00 93 1018.0
20260905172051 75 31 3.0 12.0 0.00 0.00 0.00 93 1018.1
20260905171605 75 315 5.0 12.0 0.00 0.00 0.00 93 1018.3
20260905171054 75 285 3.0 10.0 0.00 0.00 0.00 93 1018.3
20260905170551 74 51 2.0 10.0 0.00 0.00 0.00 93 1017.9
20260905170106 74 61 6.0 10.0 0.00 0.00 0.00 93 1017.8
20260905165549 74 65 5.0 9.0 0.00 0.00 0.00 93 1017.7
20260905165051 74 31 4.0 8.0 0.00 0.00 0.00 93 1017.8
20260905164606 74 55 4.0 8.0 0.00 0.00 0.00 93 1017.9
20260905164050 74 46 3.0 6.0 0.00 0.00 0.00 93 1017.9
20260905163556 74 332 2.0 5.0 0.00 0.00 0.00 93 1018.1
20260905163105 74 61 4.0 5.0 0.00 0.00 0.00 93 1018.0
20260905162554 74 62 2.0 4.0 0.00 0.00 0.00 93 1018.0
20260905162055 74 61 1.0 5.0 0.00 0.00 0.00 93 1018.0
20260905161604 74 61 2.0 5.0 0.00 0.00 0.00 93 1017.9
20260905161050 74 64 2.0 8.0 0.00 0.00 0.00 93 1017.7
20260905160550 74 69 3.0 8.0 0.00 0.00 0.00 94 1017.5
20260905160105 74 64 3.0 8.0 0.00 0.00 0.00 94 1017.4
20260905155554 74 58 3.0 8.0 0.00 0.00 0.00 94 1017.4
20260905155052 74 65 3.0 8.0 0.00 0.00 0.00 94 1017.4
20260905154607 74 87 4.0 8.0 0.00 0.00 0.00 93 1017.4
20260905154055 74 73 4.0 8.0 0.00 0.00 0.00 93 1017.4
20260905153554 74 69 3.0 9.0 0.00 0.00 0.00 94 1017.3
20260905153113 73 82 4.0 10.0 0.00 0.00 0.00 94 1017.2
20260905152555 73 59 6.0 10.0 0.00 0.00 0.00 94 1017.2
20260905152054 73 82 4.0 10.0 0.00 0.00 0.00 94 1017.3
20260905151606 73 73 3.0 8.0 0.00 0.00 0.00 94 1017.2
20260905151055 73 61 4.0 8.0 0.00 0.00 0.00 94 1017.1
20260905150554 73 69 4.0 8.0 0.00 0.00 0.00 94 1017.2
20260905150104 73 76 5.0 8.0 0.00 0.00 0.00 94 1017.1
20260905145555 73 76 3.0 9.0 0.00 0.00 0.00 93 1017.0
20260905145054 72 44 5.0 9.0 0.00 0.00 0.00 93 1017.1
20260905144611 72 30 4.0 9.0 0.00 0.00 0.00 93 1017.0
20260905144055 72 51 4.0 9.0 0.00 0.00 0.00 93 1016.9
20260905143557 72 51 2.0 5.0 0.00 0.00 0.00 93 1017.0
20260905143109 72 49 2.0 6.0 0.00 0.00 0.00 94 1016.9
20260905142553 72 30 3.0 6.0 0.00 0.00 0.00 93 1016.9
20260905142057 72 45 3.0 6.0 0.00 0.00 0.00 93 1016.8
20260905141615 72 63 3.0 5.0 0.00 0.00 0.00 93 1016.8